Multibeam Report for FK009B


Ship Name: Falkor
Chief Scientist: Juniper, S. Kim
University of Victoria
Source Organization: UNOLS R2R
Start Date: 2013-09-04
End Date: 2013-09-19


View ISO Metadata

Visit the full NCEI Bathymetry Viewer


Multibeam Bathymetry

Cruise Details

Project: Open Ocean to Inner Sea, Leg 2
Instrument: Kongsberg EM302 and EM710

Data Quality

Number of Files: 244
Number of Records: 1216572
BATHYMETRY DATA Quantity Percentage
Number of Beams 488230384 100%
Number of Good Beams 479382312 98.19%
Number of Zero Beams 0 0%
Number of Flagged Beams 8848072 1.81%

Navigation Totals

Total Time: 168.7237 hours
Total Track Length: 2231.6764 km
Average Speed: 13.227 km/hr (7.1420 knots)

Cruise Bounds

Northern Extent: 49.043514
Southern Extent: 48.06716
Western Extent: -126.86302
Eastern Extent: -123.01246

Limits

Minimum Sonar Depth 2.7412 Maximum Sonar Depth 8.2959
Minimum Altitude 13.204 Maximum Altitude 2372.9399
Minimum Depth 17.1924 Maximum Depth 2796.3459

File Information

Full Resolution Bathymetry as collected (raw): 240

Files File Size Description
0000_20130909_101727_FK009B_EM302.all.mb58.gz 47.02MB Kongsberg multibeam vendor format
0001_20130909_111722_FK009B_EM302.all.mb58.gz 34.90MB Kongsberg multibeam vendor format
0002_20130909_121722_FK009B_EM302.all.mb58.gz 35.33MB Kongsberg multibeam vendor format
0003_20130909_131723_FK009B_EM302.all.mb58.gz 5.57MB Kongsberg multibeam vendor format
0004_20130909_201547_FK009B_EM302.all.mb58.gz 15.02MB Kongsberg multibeam vendor format
0005_20130910_050332_FK009B_EM302.all.mb58.gz 36.73MB Kongsberg multibeam vendor format
0006_20130910_060326_FK009B_EM302.all.mb58.gz 16.77MB Kongsberg multibeam vendor format
0006_20130910_063344_FK009B_EM302.all.mb58.gz 37.41MB Kongsberg multibeam vendor format
0007_20130910_073344_FK009B_EM302.all.mb58.gz 25.19MB Kongsberg multibeam vendor format
0008_20130910_080848_FK009B_EM302.all.mb58.gz 2.48MB Kongsberg multibeam vendor format
0009_20130910_081220_FK009B_EM302.all.mb58.gz 47.88MB Kongsberg multibeam vendor format
0010_20130910_091219_FK009B_EM302.all.mb58.gz 43.74MB Kongsberg multibeam vendor format
0011_20130910_095643_FK009B_EM302.all.mb58.gz 119.36MB Kongsberg multibeam vendor format
0012_20130910_105640_FK009B_EM302.all.mb58.gz 47.50MB Kongsberg multibeam vendor format
0013_20130910_110833_FK009B_EM302.all.mb58.gz 197.83MB Kongsberg multibeam vendor format
0014_20130910_120832_FK009B_EM302.all.mb58.gz 64.03MB Kongsberg multibeam vendor format
0015_20130910_130834_FK009B_EM302.all.mb58.gz 6.75MB Kongsberg multibeam vendor format
0016_20130910_131934_FK009B_EM302.all.mb58.gz 68.80MB Kongsberg multibeam vendor format
0017_20130910_141934_FK009B_EM302.all.mb58.gz 23.85MB Kongsberg multibeam vendor format
0018_20130911_050751_FK009B_EM302.all.mb58.gz 27.29MB Kongsberg multibeam vendor format
0019_20130911_060753_FK009B_EM302.all.mb58.gz 24.41MB Kongsberg multibeam vendor format
0020_20130911_070751_FK009B_EM302.all.mb58.gz 26.89MB Kongsberg multibeam vendor format
0021_20130911_080756_FK009B_EM302.all.mb58.gz 24.05MB Kongsberg multibeam vendor format
0022_20130911_090755_FK009B_EM302.all.mb58.gz 24.73MB Kongsberg multibeam vendor format
0023_20130911_100755_FK009B_EM302.all.mb58.gz 27.86MB Kongsberg multibeam vendor format
0024_20130911_110754_FK009B_EM302.all.mb58.gz 25.22MB Kongsberg multibeam vendor format
0025_20130911_120756_FK009B_EM302.all.mb58.gz 23.17MB Kongsberg multibeam vendor format
0026_20130911_130755_FK009B_EM302.all.mb58.gz 27.60MB Kongsberg multibeam vendor format
0027_20130911_140752_FK009B_EM302.all.mb58.gz 17.08MB Kongsberg multibeam vendor format
0028_20130912_141526_FK009B_EM302.all.mb58.gz 31.60MB Kongsberg multibeam vendor format
0029_20130912_151516_FK009B_EM302.all.mb58.gz 9.33MB Kongsberg multibeam vendor format
0030_20130912_153335_FK009B_EM302.all.mb58.gz 0.94MB Kongsberg multibeam vendor format
0031_20130912_153526_FK009B_EM302.all.mb58.gz 2.06MB Kongsberg multibeam vendor format
0032_20130912_153927_FK009B_EM302.all.mb58.gz 14.02MB Kongsberg multibeam vendor format
0033_20130912_161111_FK009B_EM302.all.mb58.gz 3.11MB Kongsberg multibeam vendor format
0034_20130912_161727_FK009B_EM302.all.mb58.gz 5.87MB Kongsberg multibeam vendor format
0035_20130912_162920_FK009B_EM302.all.mb58.gz 25.82MB Kongsberg multibeam vendor format
0036_20130912_172923_FK009B_EM302.all.mb58.gz 14.75MB Kongsberg multibeam vendor format
0037_20130913_035044_FK009B_EM302.all.mb58.gz 29.25MB Kongsberg multibeam vendor format
0038_20130913_045040_FK009B_EM302.all.mb58.gz 28.59MB Kongsberg multibeam vendor format
0039_20130913_055044_FK009B_EM302.all.mb58.gz 35.98MB Kongsberg multibeam vendor format
0040_20130913_065041_FK009B_EM302.all.mb58.gz 58.53MB Kongsberg multibeam vendor format
0000_20130907_123209_FK009B_EM710.all.mb58.gz 400.31MB Kongsberg multibeam vendor format
0000_20130907_190813_FK009B_EM710.all.mb58.gz 29.69MB Kongsberg multibeam vendor format
0001_20130907_184203_FK009B_EM710.all.mb58.gz 208.76MB Kongsberg multibeam vendor format
0001_20130907_192737_FK009B_EM710.all.mb58.gz 330.50MB Kongsberg multibeam vendor format
0002_20130907_202737_FK009B_EM710.all.mb58.gz 300.09MB Kongsberg multibeam vendor format
0003_20130907_212737_FK009B_EM710.all.mb58.gz 328.41MB Kongsberg multibeam vendor format
0004_20130907_222737_FK009B_EM710.all.mb58.gz 15.83MB Kongsberg multibeam vendor format
0005_20130908_054021_FK009B_EM710.all.mb58.gz 428.25MB Kongsberg multibeam vendor format
0006_20130908_064013_FK009B_EM710.all.mb58.gz 453.12MB Kongsberg multibeam vendor format
0007_20130908_074014_FK009B_EM710.all.mb58.gz 447.09MB Kongsberg multibeam vendor format
0008_20130908_084014_FK009B_EM710.all.mb58.gz 450.14MB Kongsberg multibeam vendor format
0009_20130908_094013_FK009B_EM710.all.mb58.gz 445.37MB Kongsberg multibeam vendor format
0010_20130908_104014_FK009B_EM710.all.mb58.gz 411.57MB Kongsberg multibeam vendor format
0011_20130908_114014_FK009B_EM710.all.mb58.gz 462.25MB Kongsberg multibeam vendor format
0012_20130908_124014_FK009B_EM710.all.mb58.gz 462.85MB Kongsberg multibeam vendor format
0013_20130908_134014_FK009B_EM710.all.mb58.gz 476.56MB Kongsberg multibeam vendor format
0014_20130908_144014_FK009B_EM710.all.mb58.gz 495.63MB Kongsberg multibeam vendor format
0015_20130908_154014_FK009B_EM710.all.mb58.gz 502.78MB Kongsberg multibeam vendor format
0016_20130908_164014_FK009B_EM710.all.mb58.gz 261.70MB Kongsberg multibeam vendor format
0017_20130908_174714_FK009B_EM710.all.mb58.gz 355.65MB Kongsberg multibeam vendor format
0018_20130908_184705_FK009B_EM710.all.mb58.gz 369.88MB Kongsberg multibeam vendor format
0019_20130908_194705_FK009B_EM710.all.mb58.gz 373.27MB Kongsberg multibeam vendor format
0020_20130908_204705_FK009B_EM710.all.mb58.gz 285.10MB Kongsberg multibeam vendor format
0021_20130908_214706_FK009B_EM710.all.mb58.gz 403.70MB Kongsberg multibeam vendor format
0022_20130908_224706_FK009B_EM710.all.mb58.gz 372.67MB Kongsberg multibeam vendor format
0023_20130908_233246_FK009B_EM710.all.mb58.gz 386.96MB Kongsberg multibeam vendor format
0024_20130909_001821_FK009B_EM710.all.mb58.gz 459.09MB Kongsberg multibeam vendor format
0025_20130909_011821_FK009B_EM710.all.mb58.gz 355.65MB Kongsberg multibeam vendor format
0026_20130909_021822_FK009B_EM710.all.mb58.gz 97.79MB Kongsberg multibeam vendor format
0026_20130909_023708_FK009B_EM710.all.mb58.gz 367.74MB Kongsberg multibeam vendor format
0027_20130909_033709_FK009B_EM710.all.mb58.gz 343.47MB Kongsberg multibeam vendor format
0028_20130909_043709_FK009B_EM710.all.mb58.gz 306.24MB Kongsberg multibeam vendor format
0029_20130909_053708_FK009B_EM710.all.mb58.gz 469.97MB Kongsberg multibeam vendor format
0030_20130909_063708_FK009B_EM710.all.mb58.gz 426.19MB Kongsberg multibeam vendor format
0031_20130909_073708_FK009B_EM710.all.mb58.gz 530.41MB Kongsberg multibeam vendor format
0032_20130909_083708_FK009B_EM710.all.mb58.gz 441.66MB Kongsberg multibeam vendor format
0033_20130909_093708_FK009B_EM710.all.mb58.gz 104.12MB Kongsberg multibeam vendor format
0034_20130909_103710_FK009B_EM710.all.mb58.gz 46.21MB Kongsberg multibeam vendor format
0035_20130909_113711_FK009B_EM710.all.mb58.gz 21.61MB Kongsberg multibeam vendor format
0036_20130909_132932_FK009B_EM710.all.mb58.gz 20.21MB Kongsberg multibeam vendor format
0037_20130909_135634_FK009B_EM710.all.mb58.gz 19.05MB Kongsberg multibeam vendor format
0038_20130909_142255_FK009B_EM710.all.mb58.gz 43.95MB Kongsberg multibeam vendor format
0039_20130909_152256_FK009B_EM710.all.mb58.gz 43.95MB Kongsberg multibeam vendor format
0040_20130909_162257_FK009B_EM710.all.mb58.gz 43.81MB Kongsberg multibeam vendor format
0041_20130909_172255_FK009B_EM710.all.mb58.gz 43.98MB Kongsberg multibeam vendor format
0042_20130909_182255_FK009B_EM710.all.mb58.gz 43.66MB Kongsberg multibeam vendor format
0043_20130909_192256_FK009B_EM710.all.mb58.gz 38.51MB Kongsberg multibeam vendor format
0044_20130910_101820_FK009B_EM710.all.mb58.gz 18.53MB Kongsberg multibeam vendor format
0045_20130910_102724_FK009B_EM710.all.mb58.gz 273.46MB Kongsberg multibeam vendor format
0046_20130910_112723_FK009B_EM710.all.mb58.gz 171.82MB Kongsberg multibeam vendor format
0047_20130910_122725_FK009B_EM710.all.mb58.gz 48.38MB Kongsberg multibeam vendor format
0048_20130910_132724_FK009B_EM710.all.mb58.gz 56.93MB Kongsberg multibeam vendor format
0049_20130910_142723_FK009B_EM710.all.mb58.gz 17.12MB Kongsberg multibeam vendor format
0050_20130911_050756_FK009B_EM710.all.mb58.gz 37.11MB Kongsberg multibeam vendor format
0051_20130911_060756_FK009B_EM710.all.mb58.gz 34.26MB Kongsberg multibeam vendor format
0052_20130911_070756_FK009B_EM710.all.mb58.gz 5.26MB Kongsberg multibeam vendor format
0053_20130911_080125_FK009B_EM710.all.mb58.gz 0.52MB Kongsberg multibeam vendor format
0054_20130911_080246_FK009B_EM710.all.mb58.gz 99.2KB Kongsberg multibeam vendor format
0055_20130911_080447_FK009B_EM710.all.mb58.gz 394.9KB Kongsberg multibeam vendor format
0056_20130911_090946_FK009B_EM710.all.mb58.gz 34.00MB Kongsberg multibeam vendor format
0057_20130911_100946_FK009B_EM710.all.mb58.gz 37.00MB Kongsberg multibeam vendor format
0058_20130911_110946_FK009B_EM710.all.mb58.gz 33.82MB Kongsberg multibeam vendor format
0059_20130911_120947_FK009B_EM710.all.mb58.gz 32.26MB Kongsberg multibeam vendor format
0060_20130911_130947_FK009B_EM710.all.mb58.gz 36.13MB Kongsberg multibeam vendor format
0061_20130911_140947_FK009B_EM710.all.mb58.gz 21.67MB Kongsberg multibeam vendor format
0062_20130912_011901_FK009B_EM710.all.mb58.gz 9.72MB Kongsberg multibeam vendor format
0063_20130912_013332_FK009B_EM710.all.mb58.gz 181.82MB Kongsberg multibeam vendor format
0064_20130912_022709_FK009B_EM710.all.mb58.gz 225.62MB Kongsberg multibeam vendor format
0065_20130912_030925_FK009B_EM710.all.mb58.gz 110.05MB Kongsberg multibeam vendor format
0066_20130912_040927_FK009B_EM710.all.mb58.gz 52.77MB Kongsberg multibeam vendor format
0067_20130912_050925_FK009B_EM710.all.mb58.gz 29.60MB Kongsberg multibeam vendor format
0068_20130912_141621_FK009B_EM710.all.mb58.gz 39.86MB Kongsberg multibeam vendor format
0069_20130912_151619_FK009B_EM710.all.mb58.gz 36.45MB Kongsberg multibeam vendor format
0070_20130912_161619_FK009B_EM710.all.mb58.gz 35.20MB Kongsberg multibeam vendor format
0071_20130912_171619_FK009B_EM710.all.mb58.gz 28.81MB Kongsberg multibeam vendor format
0072_20130913_070844_FK009B_EM710.all.mb58.gz 186.23MB Kongsberg multibeam vendor format
0073_20130913_080836_FK009B_EM710.all.mb58.gz 60.88MB Kongsberg multibeam vendor format
0074_20130913_081835_FK009B_EM710.all.mb58.gz 431.37MB Kongsberg multibeam vendor format
0075_20130913_091835_FK009B_EM710.all.mb58.gz 11.59MB Kongsberg multibeam vendor format
0076_20130913_091956_FK009B_EM710.all.mb58.gz 318.33MB Kongsberg multibeam vendor format
0077_20130913_095727_FK009B_EM710.all.mb58.gz 354.23MB Kongsberg multibeam vendor format
0078_20130913_104010_FK009B_EM710.all.mb58.gz 240.53MB Kongsberg multibeam vendor format
0079_20130913_111257_FK009B_EM710.all.mb58.gz 180.92MB Kongsberg multibeam vendor format
0080_20130913_113855_FK009B_EM710.all.mb58.gz 426.89MB Kongsberg multibeam vendor format
0081_20130913_123218_FK009B_EM710.all.mb58.gz 56.62MB Kongsberg multibeam vendor format
0082_20130913_123857_FK009B_EM710.all.mb58.gz 53.88MB Kongsberg multibeam vendor format
0083_20130913_124524_FK009B_EM710.all.mb58.gz 453.72MB Kongsberg multibeam vendor format
0084_20130913_134221_FK009B_EM710.all.mb58.gz 67.70MB Kongsberg multibeam vendor format
0085_20130913_135205_FK009B_EM710.all.mb58.gz 48.80MB Kongsberg multibeam vendor format
0086_20130913_135922_FK009B_EM710.all.mb58.gz 458.20MB Kongsberg multibeam vendor format
0087_20130913_145922_FK009B_EM710.all.mb58.gz 50.07MB Kongsberg multibeam vendor format
0088_20130913_150524_FK009B_EM710.all.mb58.gz 347.04MB Kongsberg multibeam vendor format
0089_20130913_154744_FK009B_EM710.all.mb58.gz 319.38MB Kongsberg multibeam vendor format
0090_20130913_163113_FK009B_EM710.all.mb58.gz 343.78MB Kongsberg multibeam vendor format
0091_20130913_172337_FK009B_EM710.all.mb58.gz 443.88MB Kongsberg multibeam vendor format
0092_20130913_182336_FK009B_EM710.all.mb58.gz 69.22MB Kongsberg multibeam vendor format
0093_20130913_183302_FK009B_EM710.all.mb58.gz 426.84MB Kongsberg multibeam vendor format
0094_20130913_193302_FK009B_EM710.all.mb58.gz 417.28MB Kongsberg multibeam vendor format
0095_20130913_203302_FK009B_EM710.all.mb58.gz 165.09MB Kongsberg multibeam vendor format
0096_20130913_233503_FK009B_EM710.all.mb58.gz 269.31MB Kongsberg multibeam vendor format
0097_20130914_003503_FK009B_EM710.all.mb58.gz 374.38MB Kongsberg multibeam vendor format
0098_20130914_013503_FK009B_EM710.all.mb58.gz 274.29MB Kongsberg multibeam vendor format
0099_20130914_023504_FK009B_EM710.all.mb58.gz 207.95MB Kongsberg multibeam vendor format
0100_20130914_030918_FK009B_EM710.all.mb58.gz 378.95MB Kongsberg multibeam vendor format
0101_20130914_040919_FK009B_EM710.all.mb58.gz 252.11MB Kongsberg multibeam vendor format
0102_20130914_045009_FK009B_EM710.all.mb58.gz 268.15MB Kongsberg multibeam vendor format
0103_20130914_053119_FK009B_EM710.all.mb58.gz 262.60MB Kongsberg multibeam vendor format
0104_20130914_061220_FK009B_EM710.all.mb58.gz 265.38MB Kongsberg multibeam vendor format
0105_20130914_065330_FK009B_EM710.all.mb58.gz 270.90MB Kongsberg multibeam vendor format
0106_20130914_073452_FK009B_EM710.all.mb58.gz 270.85MB Kongsberg multibeam vendor format
0107_20130914_081625_FK009B_EM710.all.mb58.gz 20.58MB Kongsberg multibeam vendor format
0108_20130914_081930_FK009B_EM710.all.mb58.gz 270.96MB Kongsberg multibeam vendor format
0109_20130914_090032_FK009B_EM710.all.mb58.gz 45.55MB Kongsberg multibeam vendor format
0110_20130914_090728_FK009B_EM710.all.mb58.gz 59.93MB Kongsberg multibeam vendor format
0111_20130914_091637_FK009B_EM710.all.mb58.gz 274.18MB Kongsberg multibeam vendor format
0112_20130914_095742_FK009B_EM710.all.mb58.gz 28.07MB Kongsberg multibeam vendor format
0113_20130914_100154_FK009B_EM710.all.mb58.gz 66.17MB Kongsberg multibeam vendor format
0114_20130914_101141_FK009B_EM710.all.mb58.gz 276.73MB Kongsberg multibeam vendor format
0115_20130914_105240_FK009B_EM710.all.mb58.gz 57.31MB Kongsberg multibeam vendor format
0116_20130914_110116_FK009B_EM710.all.mb58.gz 261.94MB Kongsberg multibeam vendor format
0117_20130914_114019_FK009B_EM710.all.mb58.gz 135.14MB Kongsberg multibeam vendor format
0118_20130914_120048_FK009B_EM710.all.mb58.gz 66.47MB Kongsberg multibeam vendor format
0119_20130914_220149_FK009B_EM710.all.mb58.gz 66.15MB Kongsberg multibeam vendor format
0120_20130914_222449_FK009B_EM710.all.mb58.gz 71.93MB Kongsberg multibeam vendor format
0121_20130914_224929_FK009B_EM710.all.mb58.gz 16.49MB Kongsberg multibeam vendor format
0122_20130914_225522_FK009B_EM710.all.mb58.gz 95.62MB Kongsberg multibeam vendor format
0123_20130914_232824_FK009B_EM710.all.mb58.gz 67.10MB Kongsberg multibeam vendor format
0124_20130914_235227_FK009B_EM710.all.mb58.gz 95.61MB Kongsberg multibeam vendor format
0125_20130915_003016_FK009B_EM710.all.mb58.gz 39.33MB Kongsberg multibeam vendor format
0126_20130915_004432_FK009B_EM710.all.mb58.gz 170.16MB Kongsberg multibeam vendor format
0127_20130915_014433_FK009B_EM710.all.mb58.gz 82.23MB Kongsberg multibeam vendor format
0128_20130915_134952_FK009B_EM710.all.mb58.gz 6.82MB Kongsberg multibeam vendor format
0129_20130915_135134_FK009B_EM710.all.mb58.gz 9.02MB Kongsberg multibeam vendor format
0130_20130915_135530_FK009B_EM710.all.mb58.gz 199.1KB Kongsberg multibeam vendor format
0131_20130915_135706_FK009B_EM710.all.mb58.gz 202.24MB Kongsberg multibeam vendor format
0132_20130915_145703_FK009B_EM710.all.mb58.gz 92.80MB Kongsberg multibeam vendor format
0133_20130915_151200_FK009B_EM710.all.mb58.gz 106.04MB Kongsberg multibeam vendor format
0134_20130915_153805_FK009B_EM710.all.mb58.gz 0.82MB Kongsberg multibeam vendor format
0135_20130915_153848_FK009B_EM710.all.mb58.gz 1.76MB Kongsberg multibeam vendor format
0137_20130915_154027_FK009B_EM710.all.mb58.gz 74.08MB Kongsberg multibeam vendor format
0138_20130915_160005_FK009B_EM710.all.mb58.gz 103.06MB Kongsberg multibeam vendor format
0139_20130915_170005_FK009B_EM710.all.mb58.gz 19.99MB Kongsberg multibeam vendor format
0140_20130916_021941_FK009B_EM710.all.mb58.gz 50.40MB Kongsberg multibeam vendor format
0141_20130916_031940_FK009B_EM710.all.mb58.gz 30.99MB Kongsberg multibeam vendor format
0142_20130916_103847_FK009B_EM710.all.mb58.gz 13.18MB Kongsberg multibeam vendor format
0143_20130916_105143_FK009B_EM710.all.mb58.gz 46.20MB Kongsberg multibeam vendor format
0144_20130916_112052_FK009B_EM710.all.mb58.gz 119.69MB Kongsberg multibeam vendor format
0145_20130916_122052_FK009B_EM710.all.mb58.gz 231.91MB Kongsberg multibeam vendor format
0146_20130916_132052_FK009B_EM710.all.mb58.gz 8.02MB Kongsberg multibeam vendor format
0147_20130916_192932_FK009B_EM710.all.mb58.gz 466.80MB Kongsberg multibeam vendor format
0148_20130916_202931_FK009B_EM710.all.mb58.gz 470.96MB Kongsberg multibeam vendor format
0149_20130916_212931_FK009B_EM710.all.mb58.gz 425.73MB Kongsberg multibeam vendor format
0150_20130916_222932_FK009B_EM710.all.mb58.gz 486.44MB Kongsberg multibeam vendor format
0151_20130916_232816_FK009B_EM710.all.mb58.gz 347.65MB Kongsberg multibeam vendor format
0152_20130917_000916_FK009B_EM710.all.mb58.gz 19.55MB Kongsberg multibeam vendor format
0153_20130917_001151_FK009B_EM710.all.mb58.gz 416.12MB Kongsberg multibeam vendor format
0154_20130917_011151_FK009B_EM710.all.mb58.gz 407.68MB Kongsberg multibeam vendor format
0155_20130917_021151_FK009B_EM710.all.mb58.gz 357.53MB Kongsberg multibeam vendor format
0156_20130917_030710_FK009B_EM710.all.mb58.gz 109.52MB Kongsberg multibeam vendor format
0157_20130917_032502_FK009B_EM710.all.mb58.gz 71.07MB Kongsberg multibeam vendor format
0158_20130917_033639_FK009B_EM710.all.mb58.gz 159.24MB Kongsberg multibeam vendor format
0159_20130917_040238_FK009B_EM710.all.mb58.gz 363.88MB Kongsberg multibeam vendor format
0160_20130917_050238_FK009B_EM710.all.mb58.gz 64.51MB Kongsberg multibeam vendor format
0161_20130917_064520_FK009B_EM710.all.mb58.gz 29.34MB Kongsberg multibeam vendor format
0162_20130917_065832_FK009B_EM710.all.mb58.gz 52.29MB Kongsberg multibeam vendor format
0163_20130917_073316_FK009B_EM710.all.mb58.gz 210.74MB Kongsberg multibeam vendor format
0164_20130917_091606_FK009B_EM710.all.mb58.gz 270.80MB Kongsberg multibeam vendor format
0165_20130917_101602_FK009B_EM710.all.mb58.gz 304.45MB Kongsberg multibeam vendor format
0166_20130917_111601_FK009B_EM710.all.mb58.gz 408.27MB Kongsberg multibeam vendor format
0167_20130917_121601_FK009B_EM710.all.mb58.gz 369.54MB Kongsberg multibeam vendor format
0168_20130917_131602_FK009B_EM710.all.mb58.gz 323.36MB Kongsberg multibeam vendor format
0169_20130917_141602_FK009B_EM710.all.mb58.gz 217.69MB Kongsberg multibeam vendor format
0170_20130917_151602_FK009B_EM710.all.mb58.gz 37.89MB Kongsberg multibeam vendor format
0171_20130917_152526_FK009B_EM710.all.mb58.gz 271.38MB Kongsberg multibeam vendor format
0172_20130917_162522_FK009B_EM710.all.mb58.gz 307.78MB Kongsberg multibeam vendor format
0173_20130917_172522_FK009B_EM710.all.mb58.gz 336.05MB Kongsberg multibeam vendor format
0174_20130917_182523_FK009B_EM710.all.mb58.gz 300.09MB Kongsberg multibeam vendor format
0175_20130917_192522_FK009B_EM710.all.mb58.gz 158.37MB Kongsberg multibeam vendor format
0176_20130917_200200_FK009B_EM710.all.mb58.gz 23.02MB Kongsberg multibeam vendor format
0177_20130917_201513_FK009B_EM710.all.mb58.gz 304.76MB Kongsberg multibeam vendor format
0178_20130917_213325_FK009B_EM710.all.mb58.gz 426.34MB Kongsberg multibeam vendor format
0179_20130917_223325_FK009B_EM710.all.mb58.gz 432.01MB Kongsberg multibeam vendor format
0180_20130917_233325_FK009B_EM710.all.mb58.gz 392.60MB Kongsberg multibeam vendor format
0181_20130918_003325_FK009B_EM710.all.mb58.gz 167.39MB Kongsberg multibeam vendor format
0182_20130918_015632_FK009B_EM710.all.mb58.gz 341.81MB Kongsberg multibeam vendor format
0183_20130918_025629_FK009B_EM710.all.mb58.gz 373.88MB Kongsberg multibeam vendor format
0184_20130918_035628_FK009B_EM710.all.mb58.gz 369.88MB Kongsberg multibeam vendor format
0185_20130918_045629_FK009B_EM710.all.mb58.gz 366.09MB Kongsberg multibeam vendor format
0186_20130918_055629_FK009B_EM710.all.mb58.gz 380.24MB Kongsberg multibeam vendor format
0187_20130918_065628_FK009B_EM710.all.mb58.gz 369.59MB Kongsberg multibeam vendor format
0188_20130918_075630_FK009B_EM710.all.mb58.gz 281.46MB Kongsberg multibeam vendor format
0189_20130918_085629_FK009B_EM710.all.mb58.gz 325.71MB Kongsberg multibeam vendor format
0190_20130918_095629_FK009B_EM710.all.mb58.gz 339.31MB Kongsberg multibeam vendor format
0191_20130918_105629_FK009B_EM710.all.mb58.gz 367.47MB Kongsberg multibeam vendor format
0192_20130918_115629_FK009B_EM710.all.mb58.gz 378.10MB Kongsberg multibeam vendor format
0193_20130918_125629_FK009B_EM710.all.mb58.gz 378.30MB Kongsberg multibeam vendor format
0194_20130918_135629_FK009B_EM710.all.mb58.gz 429.01MB Kongsberg multibeam vendor format
0195_20130918_145629_FK009B_EM710.all.mb58.gz 80.50MB Kongsberg multibeam vendor format

Metadata Files: 3

Files File Size Description
FK009B_Multibeam.xml NGDC created ISO metadata
em302_bag_info.tar.gz 4.3KB Additional cruise information
em710_bag_info.tar.gz 21.6KB Additional cruise information

Water Column Sonar Data

Water Column Sonar Data Available: WCSD Map Viewer